Location: ??????
(41.3164°N, 22.6615°E)
Time: 20:27:22
(UTC+00:00)

ATLAS 5 CENTAUR R/B - Pass Details

Date: 16 October 2021
Orbit: 497 x 1159 km, 63.4° (Epoch: 25 November)

Event Time Altitude Azimuth Distance (km) Brightness Sun altitude
Rises 16:56:11 0° 201° (SSW) 2,569 5.0 -13.8°
Reaches altitude 10° 16:58:18 10° 197° (SSW) 1,704 4.0 -14.2°
Maximum altitude 17:01:56 52° 120° (ESE) 659 1.3 -14.9°
Enters shadow 17:04:30 20° 50° (NE) 1,310 2.8 -15.3°
